Location: *
(17.3280°S, 114.7300°W)
Time: 14:15:36
(UTC+00:00)

Hubble Space Telescope - Pass Details

Date: 03 November 2020
Orbit: 536 x 540 km, 28.5° (Epoch: 29 November)

Event Time Altitude Azimuth Distance (km) Brightness Sun altitude
Rises 02:18:03 0° 311° (NW) 2,662 4.8 -8.2°
Reaches altitude 10° 02:20:25 10° 319° (NW) 1,776 3.7 -8.8°
Maximum altitude 02:24:15 38° 28° (NNE) 819 1.3 -9.6°
Enters shadow 02:27:46 12° 95° (E) 1,665 2.7 -10.4°
